STARLINK-32099, 59697

Orbit data source: Space-Track

STARLINK-32099, 59697 is a payload satellite owned by SpaceX/Seattle (US) in LEO that was launched on Wed, 08 May 2024 UTC via an FALCON 9 launch vehicle from the Air Force Eastern Test Range (AFETR). Payload-class satellites include a variety of spacecraft equipped with specific instruments for various scientific and technological missions. These include communications satellites like Starlink; space stations such as the ISS; scientific satellites like the Hubble; Earth observation satellites from companies like Planet Labs, Umbra, and HawkEye 360; GPS; miniature CubeSats for education and research; and military/defense satellites.

Loading next visibility...
Identifier
59697, 2024-086R
Orbit
LEO
Country
Flag of USUS
Related business
Manufacturer
SpaceX/Seattle
Mission
Operational Commercial Communications
Bus & Motor
STARLINK V2M, Unknown motor
Mass
730 kg wet, ~700 kg dry
Launch date (UTC)
2024-05-08 (2 years ago)
Launch vehicle
FALCON 9
Launch site
Air Force Eastern Test Range (AFETR)
Object type
Payload
Rocket body
Debris
Shape & HBR
Box + 2 Pan, 17.7 m
Radar Cross Section
33.884 m², Large (>1 m²)

Expand to show TLE details & history
Last TLE update: 2 days ago

TLE from 2 days ago
0 STARLINK-32099
1 59697U 24086R   26171.07804584 -.00002709  00000-0 -88937-4 0  9998
2 59697  43.0024 201.4503 0002015 284.5192  75.5436 15.27575816119777
Epoch: 2026-06-20T01:52Z
TLE epoch observation values (Epoch: 2026-06-20T01:52:23.160Z)
Latitude
-0.00003°
Longitude
-94.94407°
Altitude
482.492 km
Speed
7.626 km/s
True Right ascension
13h 25m 48s
True Declination
0° 00' 00"
Sunlit
Object was in daylight at epoch
Visualization orbit readout
Latitude
Unknown
Longitude
Unknown
Altitude
Unknown
Speed
Unknown
Apparent Right ascension
Unknown
Apparent Declination
Unknown
Sunlit
N/A
Visualization observer readout
Local Sidereal Time
21:23:38
Azimuth
Unknown
Elevation
Unknown
Doppler factor
Unknown
Orbital elements
Apogee altitude
486.389 km
Perigee altitude
483.623 km
Semi-major axis
6,863.143 km
Eccentricity
0.0002
Inclination
43.0024°
RAAN
201.4503°
Arg. of periapsis
284.5192°
True anomaly
75.56596°
Mean anomaly
75.5436°
Eccentric anomaly
75.55478°
Mean motion
3.81732 °/min
Orbital period
94.31 mins
BSTAR
-0.000088937
Loading maneuver chart data...
Computing Atmospheric mass density...
Loading historical data...
Loading historical data...
Loading historical data...
Loading historical data...
Loading historical data...
Loading historical data...
Loading historical data...

Documentation

Showing up to 5 results
|